This demonstration page uses our WeatherBlox Daily Observations layout. Learn more.

Left ArrowRight Arrow

38.80484, -77.04692

Hourly Observations for April 25, 2018

Temp ( °F °C ) Dew Point ( °F °C ) Humidity (%) Winds ( mph kmh ) Pressure ( in mb ) Visibility ( mi km ) Precip ( " mm )
12:03 am 00:03 Cloudy with Light Rain 55 12.8 52 11.1 90 90 NNE 9 15 29.94 1014 9 14 0.00 0.03
12:12 am 00:12 Cloudy with Light Rain 55 12.8 52 11.1 90 90 NE 7 11 29.94 1014 4 6 0.00 0.03
12:23 am 00:23 Cloudy with Rain 55 12.8 53 11.7 93 93 NE 7 11 29.94 1014 2 3 0.05 1.27
12:45 am 00:45 Cloudy with Light Rain 55 12.8 53 11.7 93 93 NE 9 15 29.94 1014 3 5 0.11 2.79
12:52 am 00:52 Cloudy with Light Rain 55 12.8 53 11.7 93 93 NE 7 11 29.92 1013 3 5 0.11 2.79
12:57 am 00:57 Cloudy with Light Rain 55 12.8 53 11.7 93 93 NE 7 11 29.91 1013 3 4 0.01 0.25
1:06 am 01:06 Cloudy with Heavy Rain 55 12.8 53 11.7 93 93 NNE 9 15 29.91 1013 3 4 0.05 1.27
1:11 am 01:11 Cloudy with Light Rain 55 12.8 53 11.7 93 93 NNE 8 13 29.91 1013 3 5 0.07 1.78
1:38 am 01:38 Cloudy with Light Rain 56 13.3 53 11.7 90 90 NNE 7 11 29.91 1013 5 8 0.10 2.54
1:52 am 01:52 Cloudy with Light Rain 56 13.3 53 11.7 90 90 NNE 7 11 29.88 1012 10 16 0.10 2.54
2:52 am 02:52 Cloudy with Light Rain 56 13.3 54 12.2 93 93 NE 7 11 29.86 1011 10 16 0.11 2.79
2:59 am 02:59 Cloudy with Light Rain 56 13.3 54 12.2 93 93 NNE 8 13 29.85 1011 10 16 0.00 0.03
3:40 am 03:40 Cloudy with Light Rain 57 13.9 54 12.2 90 90 NNE 8 13 29.83 1010 10 16 0.00 0.03
3:43 am 03:43 Cloudy with Light Rain 57 13.9 54 12.2 90 90 NNE 8 13 29.83 1010 10 16 0.00 0.03
3:52 am 03:52 Cloudy with Light Rain 57 13.9 54 12.2 90 90 NNE 8 13 29.84 1010 4 6 0.01 0.25
3:58 am 03:58 Cloudy with Rain 57 13.9 54 12.2 90 90 NNE 7 11 29.83 1010 4 6 0.01 0.25
4:19 am 04:19 Cloudy with Light Rain 57 13.9 54 12.2 90 90 NNE 7 11 29.83 1010 3 4 0.05 1.27
4:36 am 04:36 Cloudy with Light Rain 57 13.9 54 12.2 90 90 NNE 7 11 29.83 1010 3 4 0.06 1.52
4:45 am 04:45 Cloudy with Light Rain 57 13.9 54 12.2 90 90 NNE 7 11 29.83 1010 3 4 0.07 1.78
4:49 am 04:49 Cloudy with Light Rain 57 14 54 12 88 88 NNE 7 11 29.83 1010 3 5 0.07 1.78
4:52 am 04:52 Cloudy with Light Rain 57 13.9 54 12.2 90 90 NNE 8 13 29.82 1010 3 5 0.07 1.78
5:52 am 05:52 Cloudy with Drizzle 57 13.9 54 12.2 90 90 NNE 7 11 29.80 1009 3 5 0.01 0.25
6:02 am 06:02 Cloudy with Drizzle 57 13.9 54 12.2 90 90 NNE 6 9 29.80 1009 2 3 0.00 0.03
6:28 am 06:28 Cloudy with Drizzle 57 13.9 55 12.8 93 93 NNE 8 13 29.80 1009 3 4 0.01 0.25
6:52 am 06:52 Cloudy with Drizzle 57 13.9 55 12.8 93 93 NNE 6 9 29.80 1009 3 4 0.01 0.25
6:55 am 06:55 Cloudy with Drizzle 57 13.9 55 12.8 93 93 NNE 8 13 29.80 1009 2 3 0.00 0.03
7:52 am 07:52 Cloudy with Drizzle 58 14.4 56 13.3 93 93 NNE 8 13 29.79 1009 2 2 0.00 0.03
8:44 am 08:44 Cloudy with Rain 58 14.4 56 13.3 93 93 NNE 9 15 29.80 1009 1 1 0.01 0.25
8:52 am 08:52 Cloudy with Light Rain 58 14.4 56 13.3 93 93 NNE 9 15 29.78 1009 1 1 0.02 0.51
9:09 am 09:09 Cloudy with Light Rain 58 14.4 56 13.3 93 93 NNE 8 13 29.77 1008 2 2 0.01 0.25
9:52 am 09:52 Cloudy with Mist and Fog 60 15.6 57 13.9 90 90 NNE 7 11 29.76 1008 2 3 0.01 0.25
10:47 am 10:47 Cloudy with Mist and Fog 61 16 57 14 88 88 NE 6 9 29.77 1008 3 5 0.00 0.00
10:52 am 10:52 Cloudy with Mist and Fog 60 15.6 57 13.9 90 90 NNE 5 7 29.77 1008 3 5 0.00 0.00
11:17 am 11:17 Cloudy with Light Rain 61 16.1 58 14.4 90 90 N 6 9 29.77 1008 4 6 0.00 0.03
11:52 am 11:52 Cloudy with Mist and Fog 62 16.7 58 14.4 86 86 N 7 11 29.75 1007 5 8 0.00 0.03
12:46 pm 12:46 Cloudy 63 17 57 14 83 83 NNW 9 15 29.74 1007 7 11 0.00 0.00
12:52 pm 12:52 Cloudy 62 16.7 58 14.4 86 86 NNW 10 17 29.73 1007 7 11 0.00 0.00
1:52 pm 13:52 Cloudy 63 17.2 57 13.9 81 81 NW 10 17 29.71 1006 9 14 0.00 0.00
2:52 pm 14:52 Cloudy 65 18.3 58 14.4 78 78 NW 7 11 29.70 1006 10 16 0.00 0.00
3:17 pm 15:17 Cloudy 65 18.3 58 14.4 78 78 NNW 10 17 29.71 1006 10 16 0.00 0.00
3:52 pm 15:52 Cloudy 66 18.9 57 13.9 73 73 NW 12 19 29.68 1005 10 16 0.00 0.00
4:52 pm 16:52 Cloudy 66 18.9 56 13.3 70 70 NNW 14 22 29.68 1005 10 16 0.00 0.00
5:52 pm 17:52 Cloudy 65 18.3 56 13.3 73 73 NW 12 19 29.69 1006 10 16 0.00 0.00
6:29 pm 18:29 Cloudy 64 17.8 56 13.3 75 75 NW 8 13 29.68 1005 10 16 0.00 0.00
6:52 pm 18:52 Cloudy 64 17.8 56 13.3 75 75 NNW 8 13 29.68 1005 10 16 0.00 0.03
7:52 pm 19:52 Cloudy with Light Rain 63 17.2 57 13.9 81 81 WNW 5 7 29.71 1006 10 16 0.00 0.03
8:52 pm 20:52 Cloudy 63 17.2 57 13.9 81 81 NNW 5 7 29.73 1007 10 16 0.00 0.03
9:52 pm 21:52 Cloudy 63 17.2 57 13.9 81 81 Calm 29.73 1007 10 16 0.00 0.00
10:52 pm 22:52 Mostly Cloudy 62 16.7 57 13.9 84 84 W 5 7 29.73 1007 10 16 0.00 0.00
11:52 pm 23:52 Mostly Clear 62 16.7 52 11.1 70 70 NW 13 20 29.74 1007 10 16 0.00 0.00

Powered by AerisWeather